STARLINK-32454 (62142 NORAD) Tracking and Keplerian Element Data

This shows tracking and keplerian element data for the satellite.

Feedback or suggestion? Click here.




ElementValue
Catalog62142
NameSTARLINK-32454
Epoch Orbit1142
Epoch Day35.03922961
Epoch Year2025
RAAN257.0817
Inclination43.0015
Eccentricity0.0001499
Argument of Perigee271.2524
Mean Anonmoly88.8157
Mean Motion15.3208069
Decay Rate-7.15E-06
L11 62142U 24224D 25035.03922961 -.00000715 00000+0 -13903-4 0 9990
L22 62142 43.0015 257.0817 0001499 271.2524 88.8157 15.32080690 11425



Live tracking and technical data element details for STARLINK-32454 (NORAD 62142). STARLINK-32454 can be tracked NOW for your location showing map with azimuth and elevation plus other details from your city location.







IsCatalogInMostPopularTable: catalog: 62142, numindb: 14
Update: records affected: 1



GetName: 62142 STARLINK-32454

Hit Count: updated at: Sat, 24 May 2025 16:57:06 GMT